Year,Month,Day,Hour,Minute,Value (Times are PST for temperature in C)
2003,01,17,04,17,5.20
2003,01,17,04,18,5.20
2003,01,17,04,19,5.30
2003,01,17,04,20,5.30
2003,01,17,04,21,5.30
2003,01,17,04,22,5.30
2003,01,17,04,23,5.30
2003,01,17,04,24,5.30
2003,01,17,04,25,5.30
2003,01,17,04,26,5.30
2003,01,17,04,27,5.30
2003,01,17,04,28,5.30
2003,01,17,04,29,5.30
2003,01,17,04,30,5.30
2003,01,17,04,31,5.30
2003,01,17,04,32,5.30
2003,01,17,04,33,5.30
2003,01,17,04,34,5.20
2003,01,17,04,35,5.10
2003,01,17,04,36,5.10
2003,01,17,04,37,5.10
2003,01,17,04,38,5.10
2003,01,17,04,39,5.10
2003,01,17,04,40,5.10
2003,01,17,04,41,5.00
2003,01,17,04,42,4.90
2003,01,17,04,43,4.90
2003,01,17,04,44,4.90
2003,01,17,04,45,4.90
2003,01,17,04,46,4.90
2003,01,17,04,47,4.90
2003,01,17,04,48,4.90
2003,01,17,04,49,4.90
2003,01,17,04,50,4.90
2003,01,17,04,51,4.90
2003,01,17,04,52,4.90
2003,01,17,04,53,4.90
2003,01,17,04,54,4.90
2003,01,17,04,55,4.90
2003,01,17,04,56,4.90
2003,01,17,04,57,4.90
2003,01,17,04,58,4.90
2003,01,17,04,59,4.90
2003,01,17,05,00,4.90
2003,01,17,05,01,4.90
2003,01,17,05,02,4.90
2003,01,17,05,03,5.00
2003,01,17,05,04,5.10
2003,01,17,05,05,5.10
2003,01,17,05,06,5.10
2003,01,17,05,07,5.10
2003,01,17,05,08,5.10
2003,01,17,05,09,5.10
2003,01,17,05,10,5.10
2003,01,17,05,11,5.10
2003,01,17,05,12,5.10
2003,01,17,05,13,5.10
2003,01,17,05,14,5.10
2003,01,17,05,15,5.10
2003,01,17,05,16,5.10
2003,01,17,05,17,5.10
2003,01,17,05,18,5.10
2003,01,17,05,19,5.10
2003,01,17,05,20,5.10
2003,01,17,05,21,5.10
2003,01,17,05,22,5.10
2003,01,17,05,23,5.10
2003,01,17,05,24,5.10
2003,01,17,05,25,5.10
2003,01,17,05,26,5.10
2003,01,17,05,27,5.10
2003,01,17,05,28,5.10
2003,01,17,05,29,5.10
2003,01,17,05,30,5.10
2003,01,17,05,31,5.10
2003,01,17,05,32,5.10
2003,01,17,05,33,5.10
2003,01,17,05,34,5.10
2003,01,17,05,35,5.10
2003,01,17,05,36,5.10
2003,01,17,05,37,5.10
2003,01,17,05,38,5.10
2003,01,17,05,39,5.00
2003,01,17,05,40,4.90
2003,01,17,05,41,4.90
2003,01,17,05,42,4.90
2003,01,17,05,43,4.90
2003,01,17,05,44,4.90
2003,01,17,05,45,4.90
2003,01,17,05,46,4.90
2003,01,17,05,47,4.90
2003,01,17,05,48,4.90
2003,01,17,05,49,4.90
2003,01,17,05,50,4.90
2003,01,17,05,51,4.90
2003,01,17,05,52,4.90
2003,01,17,05,53,4.90
2003,01,17,05,54,4.90
2003,01,17,05,55,4.90
2003,01,17,05,56,4.90
2003,01,17,05,57,4.90
2003,01,17,05,58,4.90
2003,01,17,05,59,4.90
2003,01,17,06,00,4.90
2003,01,17,06,01,4.90
2003,01,17,06,02,4.90
2003,01,17,06,03,4.90
2003,01,17,06,04,4.90
2003,01,17,06,05,4.90
2003,01,17,06,06,4.90
2003,01,17,06,07,4.90
2003,01,17,06,08,4.90
2003,01,17,06,09,4.80
2003,01,17,06,10,4.80
2003,01,17,06,11,4.80
2003,01,17,06,12,4.80
2003,01,17,06,13,4.80
2003,01,17,06,14,4.80
2003,01,17,06,15,4.80
2003,01,17,06,16,4.80
2003,01,17,06,17,4.80
2003,01,17,06,18,4.80
2003,01,17,06,19,4.80
2003,01,17,06,20,4.80
2003,01,17,06,21,4.80
2003,01,17,06,22,4.80
2003,01,17,06,23,4.80
2003,01,17,06,24,4.80
2003,01,17,06,25,4.80
2003,01,17,06,26,4.80
2003,01,17,06,27,4.80
2003,01,17,06,28,4.80
2003,01,17,06,29,4.80
2003,01,17,06,30,4.90
2003,01,17,06,31,4.90
2003,01,17,06,32,4.90
2003,01,17,06,33,4.90
2003,01,17,06,34,4.90
2003,01,17,06,35,4.90
2003,01,17,06,36,4.90
2003,01,17,06,37,4.90
2003,01,17,06,38,4.90
2003,01,17,06,39,4.90
2003,01,17,06,40,5.00
2003,01,17,06,41,5.10
2003,01,17,06,42,5.10
2003,01,17,06,43,5.10
2003,01,17,06,44,5.10
2003,01,17,06,45,5.10
2003,01,17,06,46,5.10
2003,01,17,06,47,5.10
2003,01,17,06,48,5.10
2003,01,17,06,49,5.10
2003,01,17,06,50,5.10
2003,01,17,06,51,5.10
2003,01,17,06,52,5.10
2003,01,17,06,53,5.10
2003,01,17,06,54,5.10
2003,01,17,06,55,5.10
2003,01,17,06,56,5.10
2003,01,17,06,57,5.10
2003,01,17,06,58,5.10
2003,01,17,06,59,5.10
2003,01,17,07,00,5.00
2003,01,17,07,01,4.90
2003,01,17,07,02,4.90
2003,01,17,07,03,4.90
2003,01,17,07,04,4.90
2003,01,17,07,05,4.90
2003,01,17,07,06,4.90
2003,01,17,07,07,4.90
2003,01,17,07,08,4.90
2003,01,17,07,09,4.90
2003,01,17,07,10,4.90
2003,01,17,07,11,4.90
2003,01,17,07,12,4.90
2003,01,17,07,13,4.90
2003,01,17,07,14,4.90
2003,01,17,07,15,4.90
2003,01,17,07,16,4.90
2003,01,17,07,17,4.90
2003,01,17,07,18,4.80
2003,01,17,07,19,4.80
2003,01,17,07,20,4.80
2003,01,17,07,21,4.80
2003,01,17,07,22,4.80
2003,01,17,07,23,4.80
2003,01,17,07,24,4.80
2003,01,17,07,25,4.80
2003,01,17,07,26,4.80
2003,01,17,07,27,4.80
2003,01,17,07,28,4.80
2003,01,17,07,29,4.80
2003,01,17,07,30,4.80
2003,01,17,07,31,4.80
2003,01,17,07,32,4.80
2003,01,17,07,33,4.80
2003,01,17,07,34,4.80
2003,01,17,07,35,4.80
2003,01,17,07,36,4.80
2003,01,17,07,37,4.80
2003,01,17,07,38,4.90
2003,01,17,07,39,4.90
2003,01,17,07,40,4.90
2003,01,17,07,41,4.90
2003,01,17,07,42,4.90
2003,01,17,07,43,4.90
2003,01,17,07,44,4.80
2003,01,17,07,45,4.80
2003,01,17,07,46,4.80
2003,01,17,07,47,4.80
2003,01,17,07,48,4.90
2003,01,17,07,49,4.90
2003,01,17,07,50,4.90
2003,01,17,07,51,4.90
2003,01,17,07,52,4.90
2003,01,17,07,53,4.80
2003,01,17,07,54,4.80
2003,01,17,07,55,4.80
2003,01,17,07,56,4.80
2003,01,17,07,57,4.80
2003,01,17,07,58,4.80
2003,01,17,07,59,4.80
2003,01,17,08,00,4.80
2003,01,17,08,01,4.80
2003,01,17,08,02,4.80
2003,01,17,08,03,4.80
2003,01,17,08,04,4.80
2003,01,17,08,05,4.80
2003,01,17,08,06,4.80
2003,01,17,08,07,4.80
2003,01,17,08,08,4.80
2003,01,17,08,09,4.90
2003,01,17,08,10,4.90
2003,01,17,08,11,4.90
2003,01,17,08,12,4.90
2003,01,17,08,13,4.90
2003,01,17,08,14,4.90
2003,01,17,08,15,4.90
2003,01,17,08,16,4.90
2003,01,17,08,17,4.90
2003,01,17,08,18,4.90
2003,01,17,08,19,4.90
2003,01,17,08,20,4.90
2003,01,17,08,21,4.90
2003,01,17,08,22,4.90
2003,01,17,08,23,4.90
2003,01,17,08,24,4.90
2003,01,17,08,25,4.90
2003,01,17,08,26,4.90
2003,01,17,08,27,4.90
2003,01,17,08,28,4.90
2003,01,17,08,29,4.90
2003,01,17,08,30,4.90
2003,01,17,08,31,4.90
2003,01,17,08,32,4.90
2003,01,17,08,33,4.90
2003,01,17,08,34,4.90
2003,01,17,08,35,5.10
2003,01,17,08,36,5.10
2003,01,17,08,37,5.10
2003,01,17,08,38,5.10
2003,01,17,08,39,5.10
2003,01,17,08,40,5.10
2003,01,17,08,41,5.10
2003,01,17,08,42,5.10
2003,01,17,08,43,5.10
2003,01,17,08,44,5.10
2003,01,17,08,45,5.10
2003,01,17,08,46,5.10
2003,01,17,08,47,5.20
2003,01,17,08,48,5.20
2003,01,17,08,49,5.20
2003,01,17,08,50,5.20
2003,01,17,08,51,5.20
2003,01,17,08,52,5.20
2003,01,17,08,53,5.20
2003,01,17,08,54,5.20
2003,01,17,08,55,5.20
2003,01,17,08,56,5.30
2003,01,17,08,57,5.30
2003,01,17,08,58,5.30
2003,01,17,08,59,5.30
2003,01,17,09,00,5.30
2003,01,17,09,01,5.30
2003,01,17,09,02,5.30
2003,01,17,09,03,5.30
2003,01,17,09,04,5.30
2003,01,17,09,05,5.30
2003,01,17,09,06,5.40
2003,01,17,09,07,5.40
2003,01,17,09,08,5.40
2003,01,17,09,09,5.40
2003,01,17,09,10,5.40
2003,01,17,09,11,5.40
2003,01,17,09,12,5.40
2003,01,17,09,13,5.40
2003,01,17,09,14,5.50
2003,01,17,09,15,5.50
2003,01,17,09,16,5.50
2003,01,17,09,17,5.50
2003,01,17,09,18,5.50
2003,01,17,09,19,5.50
2003,01,17,09,20,5.50
2003,01,17,09,21,5.50
2003,01,17,09,22,5.50
2003,01,17,09,23,5.60
2003,01,17,09,24,5.60
2003,01,17,09,25,5.60
2003,01,17,09,26,5.60
2003,01,17,09,27,5.60
2003,01,17,09,28,5.60
2003,01,17,09,29,5.70
2003,01,17,09,30,5.70
2003,01,17,09,31,5.70
2003,01,17,09,32,5.70
2003,01,17,09,33,5.70
2003,01,17,09,34,5.70
2003,01,17,09,35,5.70
2003,01,17,09,36,5.70
2003,01,17,09,37,5.70
2003,01,17,09,38,5.70
2003,01,17,09,39,5.70
2003,01,17,09,40,5.80
2003,01,17,09,41,5.80
2003,01,17,09,42,5.80
2003,01,17,09,43,5.80
2003,01,17,09,44,5.80
2003,01,17,09,45,5.80
2003,01,17,09,46,5.90
2003,01,17,09,47,5.90
2003,01,17,09,48,5.90
2003,01,17,09,49,6.00
2003,01,17,09,50,6.00
2003,01,17,09,51,6.00
2003,01,17,09,52,6.00
2003,01,17,09,53,6.00
2003,01,17,09,54,6.00
2003,01,17,09,55,6.00
2003,01,17,09,56,6.00
2003,01,17,09,57,6.00
2003,01,17,09,58,6.00
2003,01,17,09,59,6.00
2003,01,17,10,00,6.00
2003,01,17,10,01,6.00
2003,01,17,10,02,6.10
2003,01,17,10,03,6.00
2003,01,17,10,04,6.10
2003,01,17,10,05,6.10
2003,01,17,10,06,6.10
2003,01,17,10,07,6.10
2003,01,17,10,08,6.10
2003,01,17,10,09,6.20
2003,01,17,10,10,6.20
2003,01,17,10,11,6.20
2003,01,17,10,12,6.20
2003,01,17,10,13,6.20
2003,01,17,10,14,6.20
2003,01,17,10,15,6.20
2003,01,17,10,16,6.20
2003,01,17,10,17,6.20
2003,01,17,10,18,6.20
2003,01,17,10,19,6.20
2003,01,17,10,20,6.20
2003,01,17,10,21,6.20
2003,01,17,10,22,6.30
2003,01,17,10,23,6.30
2003,01,17,10,24,6.30
2003,01,17,10,25,6.40
2003,01,17,10,26,6.40
2003,01,17,10,27,6.40
2003,01,17,10,28,6.50
2003,01,17,10,29,6.50
2003,01,17,10,30,6.50
2003,01,17,10,31,6.40
2003,01,17,10,32,6.50
2003,01,17,10,33,6.40
2003,01,17,10,34,6.50
2003,01,17,10,35,6.40
2003,01,17,10,36,6.40
2003,01,17,10,37,6.40
2003,01,17,10,38,6.40
2003,01,17,10,39,6.60
2003,01,17,10,40,6.60
2003,01,17,10,41,6.50
2003,01,17,10,42,6.50
2003,01,17,10,43,6.40
2003,01,17,10,44,6.50
2003,01,17,10,45,6.60
2003,01,17,10,46,6.40
2003,01,17,10,47,6.40
2003,01,17,10,48,6.40
2003,01,17,10,49,6.40
2003,01,17,10,50,6.40
2003,01,17,10,51,6.50
2003,01,17,10,52,6.40
2003,01,17,10,53,6.50
2003,01,17,10,54,6.60
2003,01,17,10,55,6.50
2003,01,17,10,56,6.50
2003,01,17,10,57,6.40
2003,01,17,10,58,6.40
2003,01,17,10,59,6.40
2003,01,17,11,00,6.50
2003,01,17,11,01,6.60
2003,01,17,11,02,6.60
2003,01,17,11,03,6.60
2003,01,17,11,04,6.60
2003,01,17,11,05,6.70
2003,01,17,11,06,6.70
2003,01,17,11,07,6.80
2003,01,17,11,08,6.80
2003,01,17,11,09,6.80
2003,01,17,11,10,6.80
2003,01,17,11,11,6.80
2003,01,17,11,12,6.80
2003,01,17,11,13,6.80
2003,01,17,11,14,6.80
2003,01,17,11,15,6.80
2003,01,17,11,16,6.80
2003,01,17,11,17,6.80
2003,01,17,11,18,6.80
2003,01,17,11,19,6.80
2003,01,17,11,20,6.80
2003,01,17,11,21,6.80
2003,01,17,11,22,6.90
2003,01,17,11,23,6.90
2003,01,17,11,24,6.90
2003,01,17,11,25,7.00
2003,01,17,11,26,7.00
2003,01,17,11,27,7.10
2003,01,17,11,28,7.10
2003,01,17,11,29,7.20
2003,01,17,11,30,7.30
2003,01,17,11,31,7.30
2003,01,17,11,32,7.30
2003,01,17,11,33,7.30
2003,01,17,11,34,7.30
2003,01,17,11,35,7.30
2003,01,17,11,36,7.30
2003,01,17,11,37,7.20
2003,01,17,11,38,7.20
2003,01,17,11,39,7.20
2003,01,17,11,40,7.20
2003,01,17,11,41,7.20
2003,01,17,11,42,7.20
2003,01,17,11,43,7.20
2003,01,17,11,44,7.30
2003,01,17,11,45,7.30
2003,01,17,11,46,7.30
2003,01,17,11,47,7.30
2003,01,17,11,48,7.30
2003,01,17,11,49,7.30
2003,01,17,11,50,7.30
2003,01,17,11,51,7.30
2003,01,17,11,52,7.30
2003,01,17,11,53,7.30
2003,01,17,11,54,7.30
2003,01,17,11,55,7.30
2003,01,17,11,56,7.30
2003,01,17,11,57,7.40
2003,01,17,11,58,7.40
2003,01,17,11,59,7.50
2003,01,17,12,00,7.50
2003,01,17,12,01,7.60
2003,01,17,12,02,7.60
2003,01,17,12,03,7.60
2003,01,17,12,04,7.50
2003,01,17,12,05,7.50
2003,01,17,12,06,7.50
2003,01,17,12,07,7.50
2003,01,17,12,08,7.50
2003,01,17,12,09,7.50
2003,01,17,12,10,7.50
2003,01,17,12,11,7.60
2003,01,17,12,12,7.60
2003,01,17,12,13,7.60
2003,01,17,12,14,7.60
2003,01,17,12,15,7.60
2003,01,17,12,16,7.70
2003,01,17,12,17,7.70
2003,01,17,12,18,7.70
2003,01,17,12,19,7.60
2003,01,17,12,20,7.60
2003,01,17,12,21,7.50
2003,01,17,12,22,7.50
2003,01,17,12,23,7.50
2003,01,17,12,24,7.50
2003,01,17,12,25,7.50
2003,01,17,12,26,7.50
2003,01,17,12,27,7.50
2003,01,17,12,28,7.60
2003,01,17,12,29,7.60
2003,01,17,12,30,7.60
2003,01,17,12,31,7.70
2003,01,17,12,32,7.70
2003,01,17,12,33,7.70
2003,01,17,12,34,7.70
2003,01,17,12,35,7.70
2003,01,17,12,36,7.60
2003,01,17,12,37,7.60
2003,01,17,12,38,7.60
2003,01,17,12,39,7.60
2003,01,17,12,40,7.60
2003,01,17,12,41,7.50
2003,01,17,12,42,7.40
2003,01,17,12,43,7.40
2003,01,17,12,44,7.40
2003,01,17,12,45,7.40
2003,01,17,12,46,7.40
2003,01,17,12,47,7.40
2003,01,17,12,48,7.40
2003,01,17,12,49,7.50
2003,01,17,12,50,7.50
2003,01,17,12,51,7.50
2003,01,17,12,52,7.50
2003,01,17,12,53,7.50
2003,01,17,12,54,7.60
2003,01,17,12,55,7.60
2003,01,17,12,56,7.60
2003,01,17,12,57,7.60
2003,01,17,12,58,7.60
2003,01,17,12,59,7.60
2003,01,17,13,00,7.60
2003,01,17,13,01,7.60
2003,01,17,13,02,7.60
2003,01,17,13,03,7.60
2003,01,17,13,04,7.60
2003,01,17,13,05,7.60
2003,01,17,13,06,7.60
2003,01,17,13,07,7.60
2003,01,17,13,08,7.70
2003,01,17,13,09,7.70
2003,01,17,13,10,7.60
2003,01,17,13,11,7.60
2003,01,17,13,12,7.70
2003,01,17,13,13,7.70
2003,01,17,13,14,7.70
2003,01,17,13,15,7.80
2003,01,17,13,16,7.80
2003,01,17,13,17,7.80
2003,01,17,13,18,7.80
2003,01,17,13,19,7.80
2003,01,17,13,20,7.80
2003,01,17,13,21,7.90
2003,01,17,13,22,7.90
2003,01,17,13,23,7.90
2003,01,17,13,24,8.00
2003,01,17,13,25,8.00
2003,01,17,13,26,8.00
2003,01,17,13,27,8.00
2003,01,17,13,28,8.00
2003,01,17,13,29,7.90
2003,01,17,13,30,7.90
2003,01,17,13,31,7.90
2003,01,17,13,32,7.90
2003,01,17,13,33,7.90
2003,01,17,13,34,7.90
2003,01,17,13,35,7.90
2003,01,17,13,36,7.90
2003,01,17,13,37,7.90
2003,01,17,13,38,7.90
2003,01,17,13,39,7.90
2003,01,17,13,40,7.90
2003,01,17,13,41,8.00
2003,01,17,13,42,8.00
2003,01,17,13,43,8.10
2003,01,17,13,44,8.10
2003,01,17,13,45,8.10
2003,01,17,13,46,8.20
2003,01,17,13,47,8.20
2003,01,17,13,48,8.20
2003,01,17,13,49,8.30
2003,01,17,13,50,8.30
2003,01,17,13,51,8.30
2003,01,17,13,52,8.30
2003,01,17,13,53,8.30
2003,01,17,13,54,8.30
2003,01,17,13,55,8.40
2003,01,17,13,56,8.30
2003,01,17,13,57,8.30
2003,01,17,13,58,8.30
2003,01,17,13,59,8.30
2003,01,17,14,00,8.30
2003,01,17,14,01,8.20
2003,01,17,14,02,8.20
2003,01,17,14,03,8.20
2003,01,17,14,04,8.20
2003,01,17,14,05,8.20
2003,01,17,14,06,8.20
2003,01,17,14,07,8.20
2003,01,17,14,08,8.20
2003,01,17,14,09,8.20
2003,01,17,14,10,8.30
2003,01,17,14,11,8.40
2003,01,17,14,12,8.30
2003,01,17,14,13,8.30
2003,01,17,14,14,8.30
2003,01,17,14,15,8.30
2003,01,17,14,16,8.20
2003,01,17,14,17,8.20
2003,01,17,14,18,8.20
2003,01,17,14,19,8.20
2003,01,17,14,20,8.10
2003,01,17,14,21,8.10
2003,01,17,14,22,8.20
2003,01,17,14,23,8.20
2003,01,17,14,24,8.20
2003,01,17,14,25,8.20
2003,01,17,14,26,8.20
2003,01,17,14,27,8.20
2003,01,17,14,28,8.20
2003,01,17,14,29,8.20
2003,01,17,14,30,8.20
2003,01,17,14,31,8.20
2003,01,17,14,32,8.20
2003,01,17,14,33,8.20
2003,01,17,14,34,8.30
2003,01,17,14,35,8.30
2003,01,17,14,36,8.30
2003,01,17,14,37,8.30
2003,01,17,14,38,8.30
2003,01,17,14,39,8.30
2003,01,17,14,40,8.40
2003,01,17,14,41,8.40
2003,01,17,14,42,8.30
2003,01,17,14,43,8.30
2003,01,17,14,44,8.30
2003,01,17,14,45,8.30
2003,01,17,14,46,8.40
2003,01,17,14,47,8.40
2003,01,17,14,48,8.50
2003,01,17,14,49,8.40
2003,01,17,14,50,8.40
2003,01,17,14,51,8.30
2003,01,17,14,52,8.30
2003,01,17,14,53,8.20
2003,01,17,14,54,8.30
2003,01,17,14,55,8.30
2003,01,17,14,56,8.30
2003,01,17,14,57,8.30
2003,01,17,14,58,8.30
2003,01,17,14,59,8.30
2003,01,17,15,00,8.20
2003,01,17,15,01,8.20
2003,01,17,15,02,8.20
2003,01,17,15,03,8.10
2003,01,17,15,04,8.10
2003,01,17,15,05,8.10
2003,01,17,15,06,8.10
2003,01,17,15,07,8.00
2003,01,17,15,08,8.00
2003,01,17,15,09,8.00
2003,01,17,15,10,8.00
2003,01,17,15,11,8.00
2003,01,17,15,12,8.00
2003,01,17,15,13,8.00
2003,01,17,15,14,8.00
2003,01,17,15,15,8.00
2003,01,17,15,16,8.00
2003,01,17,15,17,8.10
2003,01,17,15,18,8.10
2003,01,17,15,19,8.10
2003,01,17,15,20,8.20
2003,01,17,15,21,8.20
2003,01,17,15,22,8.20
2003,01,17,15,23,8.20
2003,01,17,15,24,8.20
2003,01,17,15,25,8.20
2003,01,17,15,26,8.20
2003,01,17,15,27,8.20
2003,01,17,15,28,8.20
2003,01,17,15,29,8.20
2003,01,17,15,30,8.10
2003,01,17,15,31,8.10
2003,01,17,15,32,8.10
2003,01,17,15,33,8.10
2003,01,17,15,34,8.10
2003,01,17,15,35,8.10
2003,01,17,15,36,8.00
2003,01,17,15,37,8.00
2003,01,17,15,38,8.00
2003,01,17,15,39,7.90
2003,01,17,15,40,7.90
2003,01,17,15,41,7.90
2003,01,17,15,42,7.90
2003,01,17,15,43,7.90
2003,01,17,15,44,7.80
2003,01,17,15,45,7.80
2003,01,17,15,46,7.80
2003,01,17,15,47,7.80
2003,01,17,15,48,7.80
2003,01,17,15,49,7.80
2003,01,17,15,50,7.80
2003,01,17,15,51,7.80
2003,01,17,15,52,7.80
2003,01,17,15,53,7.80
2003,01,17,15,54,7.80
2003,01,17,15,55,7.80
2003,01,17,15,56,7.80
2003,01,17,15,57,7.80
2003,01,17,15,58,7.80
2003,01,17,15,59,7.80
2003,01,17,16,00,7.80
2003,01,17,16,01,7.80
2003,01,17,16,02,7.80
2003,01,17,16,03,7.80
2003,01,17,16,04,7.80
2003,01,17,16,05,7.80
2003,01,17,16,06,7.80
2003,01,17,16,07,7.80
2003,01,17,16,08,7.80
2003,01,17,16,09,7.80
2003,01,17,16,10,7.80
2003,01,17,16,11,7.80
2003,01,17,16,12,7.80
2003,01,17,16,13,7.80
2003,01,17,16,14,7.80
2003,01,17,16,15,7.80
2003,01,17,16,16,7.80
2003,01,17,16,17,7.80
2003,01,17,16,18,7.80
2003,01,17,16,19,7.70
2003,01,17,16,20,7.70
2003,01,17,16,21,7.70
2003,01,17,16,22,7.70
2003,01,17,16,23,7.70
2003,01,17,16,24,7.70
2003,01,17,16,25,7.70
2003,01,17,16,26,7.70
2003,01,17,16,27,7.70
2003,01,17,16,28,7.70
2003,01,17,16,29,7.70
2003,01,17,16,30,7.70
2003,01,17,16,31,7.70
2003,01,17,16,32,7.70
2003,01,17,16,33,7.60
2003,01,17,16,34,7.60
2003,01,17,16,35,7.60
2003,01,17,16,36,7.60
2003,01,17,16,37,7.60
2003,01,17,16,38,7.60
2003,01,17,16,39,7.60
2003,01,17,16,40,7.60
2003,01,17,16,41,7.60
2003,01,17,16,42,7.60
2003,01,17,16,43,7.60
2003,01,17,16,44,7.60
2003,01,17,16,45,7.50
2003,01,17,16,46,7.50
2003,01,17,16,47,7.50
2003,01,17,16,48,7.50
2003,01,17,16,49,7.50
2003,01,17,16,50,7.40
2003,01,17,16,51,7.40
2003,01,17,16,52,7.40
2003,01,17,16,53,7.40
2003,01,17,16,54,7.40
2003,01,17,16,55,7.40
2003,01,17,16,56,7.40
2003,01,17,16,57,7.40
2003,01,17,16,58,7.40
2003,01,17,16,59,7.40
2003,01,17,17,00,7.40
2003,01,17,17,01,7.40
2003,01,17,17,02,7.40
2003,01,17,17,03,7.40
2003,01,17,17,04,7.40
2003,01,17,17,05,7.40
2003,01,17,17,06,7.50
2003,01,17,17,07,7.50
2003,01,17,17,08,7.50
2003,01,17,17,09,7.50
2003,01,17,17,10,7.50
2003,01,17,17,11,7.50
2003,01,17,17,12,7.50
2003,01,17,17,13,7.50
2003,01,17,17,14,7.50
2003,01,17,17,15,7.50
2003,01,17,17,16,7.50
2003,01,17,17,17,7.50
2003,01,17,17,18,7.50
2003,01,17,17,19,7.50
2003,01,17,17,20,7.50
2003,01,17,17,21,7.50
2003,01,17,17,22,7.50
2003,01,17,17,23,7.50
2003,01,17,17,24,7.40
2003,01,17,17,25,7.40
2003,01,17,17,26,7.40
2003,01,17,17,27,7.40
2003,01,17,17,28,7.40
2003,01,17,17,29,7.40
2003,01,17,17,30,7.30
2003,01,17,17,31,7.40
2003,01,17,17,32,7.40
2003,01,17,17,33,7.40
2003,01,17,17,34,7.30
2003,01,17,17,35,7.30
2003,01,17,17,36,7.30
2003,01,17,17,37,7.30
2003,01,17,17,38,7.30
2003,01,17,17,39,7.30
2003,01,17,17,40,7.30
2003,01,17,17,41,7.30
2003,01,17,17,42,7.30
2003,01,17,17,43,7.30
2003,01,17,17,44,7.30
2003,01,17,17,45,7.30
2003,01,17,17,46,7.30
2003,01,17,17,47,7.30
2003,01,17,17,48,7.30
2003,01,17,17,49,7.30
2003,01,17,17,50,7.30
2003,01,17,17,51,7.30
2003,01,17,17,52,7.30
2003,01,17,17,53,7.30
2003,01,17,17,54,7.30
2003,01,17,17,55,7.30
2003,01,17,17,56,7.30
2003,01,17,17,57,7.30
2003,01,17,17,58,7.30
2003,01,17,17,59,7.30
2003,01,17,18,00,7.30
2003,01,17,18,01,7.30
2003,01,17,18,02,7.30
2003,01,17,18,03,7.30
2003,01,17,18,04,7.30
2003,01,17,18,05,7.30
2003,01,17,18,06,7.30
2003,01,17,18,07,7.30
2003,01,17,18,08,7.30
2003,01,17,18,09,7.20
2003,01,17,18,10,7.20
2003,01,17,18,11,7.20
2003,01,17,18,12,7.20
2003,01,17,18,13,7.20
2003,01,17,18,14,7.10
2003,01,17,18,15,7.10
2003,01,17,18,16,7.10
2003,01,17,18,17,7.10
2003,01,17,18,18,7.10
2003,01,17,18,19,7.10
2003,01,17,18,20,7.10
2003,01,17,18,21,7.10
2003,01,17,18,22,7.10
2003,01,17,18,23,7.10
2003,01,17,18,24,7.10
2003,01,17,18,25,7.10
2003,01,17,18,26,7.10
2003,01,17,18,27,7.10
2003,01,17,18,28,7.10
2003,01,17,18,29,7.10
2003,01,17,18,30,7.00
2003,01,17,18,31,7.00
2003,01,17,18,32,7.00
2003,01,17,18,33,7.00
2003,01,17,18,34,7.00
2003,01,17,18,35,7.00
2003,01,17,18,36,7.00
2003,01,17,18,37,7.00
2003,01,17,18,38,7.00
2003,01,17,18,39,6.90
2003,01,17,18,40,6.90
2003,01,17,18,41,6.90
2003,01,17,18,42,6.90
2003,01,17,18,43,6.90
2003,01,17,18,44,6.90
2003,01,17,18,45,6.90
2003,01,17,18,46,6.90
2003,01,17,18,47,6.90
2003,01,17,18,48,6.90
2003,01,17,18,49,6.90
2003,01,17,18,50,6.90
2003,01,17,18,51,6.90
2003,01,17,18,52,6.90
2003,01,17,18,53,6.80
2003,01,17,18,54,6.80
2003,01,17,18,55,6.80
2003,01,17,18,56,6.80
2003,01,17,18,57,6.80
2003,01,17,18,58,6.80
2003,01,17,18,59,6.80
2003,01,17,19,00,6.80
2003,01,17,19,01,6.80
2003,01,17,19,02,6.80
2003,01,17,19,03,6.80
2003,01,17,19,04,6.80
2003,01,17,19,05,6.80
2003,01,17,19,06,6.80
2003,01,17,19,07,6.80
2003,01,17,19,08,6.80
2003,01,17,20,33,6.20
2003,01,17,20,34,6.30
2003,01,17,20,35,6.30
2003,01,17,20,36,6.30
2003,01,17,20,37,6.30
2003,01,17,20,38,6.30
2003,01,17,20,39,6.30
2003,01,17,20,40,6.30
2003,01,17,20,41,6.30
2003,01,17,20,42,6.30
2003,01,17,20,43,6.20
2003,01,17,20,44,6.20
2003,01,17,20,45,6.20
2003,01,17,20,46,6.20
2003,01,17,20,47,6.20
2003,01,17,20,48,6.20
2003,01,17,20,49,6.20
2003,01,17,20,50,6.20
2003,01,17,20,51,6.20
2003,01,17,20,52,6.20
2003,01,17,20,53,6.20
2003,01,17,20,54,6.20
2003,01,17,20,55,6.20
2003,01,17,20,56,6.20
2003,01,17,20,57,6.20
2003,01,17,20,58,6.20
2003,01,17,20,59,6.20
2003,01,17,21,00,6.20
2003,01,17,21,01,6.20
2003,01,17,21,02,6.20
2003,01,17,21,03,6.20
2003,01,17,21,04,6.20
2003,01,17,21,05,6.20
2003,01,17,21,06,6.20
2003,01,17,21,07,6.20
2003,01,17,21,08,6.20
2003,01,17,21,09,6.20
2003,01,17,21,10,6.20
2003,01,17,21,11,6.20
2003,01,17,21,12,6.20
2003,01,17,21,13,6.20
2003,01,17,21,14,6.20
2003,01,17,21,15,6.20
2003,01,17,21,16,6.20
2003,01,17,21,17,6.20
2003,01,17,21,18,6.20
2003,01,17,21,19,6.20
2003,01,17,21,20,6.20
2003,01,17,21,21,6.20
2003,01,17,21,22,6.20
2003,01,17,21,23,6.20
2003,01,17,21,24,6.20
2003,01,17,21,25,6.20
2003,01,17,21,26,6.20
2003,01,17,21,27,6.20
2003,01,17,21,28,6.20
2003,01,17,21,29,6.20
2003,01,17,21,30,6.20
2003,01,17,21,31,6.20
2003,01,17,21,32,6.20
2003,01,17,21,33,6.20
2003,01,17,21,34,6.20
2003,01,17,21,35,6.20
2003,01,17,21,36,6.20
2003,01,17,21,37,6.20
2003,01,17,21,38,6.20
2003,01,17,21,39,6.20
2003,01,17,21,40,6.20
2003,01,17,21,41,6.20
2003,01,17,21,42,6.20
2003,01,17,21,43,6.20
2003,01,17,21,44,6.20
2003,01,17,21,45,6.20
2003,01,17,21,46,6.20
2003,01,17,21,47,6.20
2003,01,17,21,48,6.20
2003,01,17,21,49,6.20
2003,01,17,21,50,6.20
2003,01,17,21,51,6.20
2003,01,17,21,52,6.20
2003,01,17,21,53,6.20
2003,01,17,21,54,6.20
2003,01,17,21,55,6.30
2003,01,17,21,56,6.30
2003,01,17,21,57,6.30
2003,01,17,21,58,6.30
2003,01,17,21,59,6.30
2003,01,17,22,00,6.30
2003,01,17,22,01,6.30
2003,01,17,22,02,6.30
2003,01,17,22,03,6.30
2003,01,17,22,04,6.30
2003,01,17,22,05,6.30
2003,01,17,22,06,6.30
2003,01,17,22,07,6.30
2003,01,17,22,08,6.30
2003,01,17,22,09,6.30
2003,01,17,22,10,6.30
2003,01,17,22,11,6.30
2003,01,17,22,12,6.30
2003,01,17,22,13,6.30
2003,01,17,22,14,6.30
2003,01,17,22,15,6.30
2003,01,17,22,16,6.30
2003,01,17,22,17,6.30
2003,01,17,22,18,6.30
2003,01,17,22,19,6.30
2003,01,17,22,20,6.30
2003,01,17,22,21,6.30
2003,01,17,22,22,6.30
2003,01,17,22,23,6.30
2003,01,17,22,24,6.30
2003,01,17,22,25,6.30
2003,01,17,22,26,6.30
2003,01,17,22,27,6.30
2003,01,17,22,28,6.30
2003,01,17,22,29,6.30
2003,01,17,22,30,6.30
2003,01,17,22,31,6.30
2003,01,17,22,32,6.30
2003,01,17,22,33,6.30
2003,01,17,22,34,6.30
2003,01,17,22,35,6.30
2003,01,17,22,36,6.20
2003,01,17,22,37,6.10
2003,01,17,22,38,6.10
2003,01,17,22,39,6.10
2003,01,17,22,40,6.10
2003,01,17,22,41,6.10
2003,01,17,22,42,6.10
2003,01,17,22,43,6.10
2003,01,17,22,44,6.10
2003,01,17,22,45,6.10
2003,01,17,22,46,6.10
2003,01,17,22,47,6.10
2003,01,17,22,48,6.10
2003,01,17,22,49,6.20
2003,01,17,22,50,6.20
2003,01,17,22,51,6.20
2003,01,17,22,52,6.20
2003,01,17,22,53,6.20
2003,01,17,22,54,6.20
2003,01,17,22,55,6.20
2003,01,17,22,56,6.20
2003,01,17,22,57,6.20
2003,01,17,22,58,6.20
2003,01,17,22,59,6.20
2003,01,17,23,00,6.20
2003,01,17,23,01,6.20
2003,01,17,23,02,6.20
2003,01,17,23,03,6.20
2003,01,17,23,04,6.20
2003,01,17,23,05,6.20
2003,01,17,23,06,6.20
2003,01,17,23,07,6.20
2003,01,17,23,08,6.20
2003,01,17,23,09,6.10
2003,01,17,23,10,6.10
2003,01,17,23,11,6.10
2003,01,17,23,12,6.10
2003,01,17,23,13,6.10
2003,01,17,23,14,6.10
2003,01,17,23,15,6.10
2003,01,17,23,16,6.10
2003,01,17,23,17,6.10
2003,01,17,23,18,6.10
2003,01,17,23,19,6.10
2003,01,17,23,20,6.10
2003,01,17,23,21,6.10
2003,01,17,23,22,6.10
2003,01,17,23,23,6.10
2003,01,17,23,24,6.10
2003,01,17,23,25,6.10
2003,01,17,23,26,6.10
2003,01,17,23,27,6.10
2003,01,17,23,28,6.20
2003,01,17,23,29,6.20
2003,01,17,23,30,6.20
2003,01,17,23,31,6.10
2003,01,17,23,32,6.10
2003,01,17,23,33,6.10
2003,01,17,23,34,6.10
2003,01,17,23,35,6.10
2003,01,17,23,36,6.10
2003,01,17,23,37,6.10
2003,01,17,23,38,6.10
2003,01,17,23,39,6.10
2003,01,17,23,40,6.00
2003,01,17,23,41,6.00
2003,01,17,23,42,6.00
2003,01,17,23,43,6.00
2003,01,17,23,44,6.00
2003,01,17,23,45,6.00
2003,01,17,23,46,6.00
2003,01,17,23,47,6.00